Location: Parkland
(50.2500°N, 113.6667°W)
Time: 15:07:39
(UTC+00:00)

N. Korean satellite - Visible Passes

Search period start: 02 December 2021 00:00
Search period end: 12 December 2021 00:00
Orbit: 447 x 495 km, 97.3° (Epoch: 01 December)

Date Brightness Start Highest point End Pass type
(mag) Time Alt. Az. Time Alt. Az. Time Alt. Az.
02 Dec 9.3 00:45:03 10° SSW 00:47:54 22° W 00:50:44 10° NW visible
02 Dec 9.2 12:05:08 10° NE 12:07:36 19° E 12:10:03 10° SE visible
02 Dec 7.0 13:37:49 10° N 13:40:55 33° WNW 13:43:59 10° SW visible
03 Dec 7.8 00:15:51 10° S 00:19:16 46° W 00:22:40 10° NNW visible
03 Dec 6.2 13:09:06 10° N 13:12:30 74° WNW 13:15:52 10° SSW visible
04 Dec 7.4 12:40:39 10° NNE 12:43:58 47° E 12:47:14 10° S visible
04 Dec 8.1 14:14:51 10° NNW 14:16:48 15° WNW 14:18:44 10° W visible
05 Dec 9.6 00:53:05 10° SW 00:55:36 18° W 00:58:08 10° NW visible
05 Dec 8.9 12:12:33 10° NE 12:15:17 22° E 12:18:00 10° SSE visible
05 Dec 7.3 13:45:34 10° N 13:48:30 27° WNW 13:51:25 10° SW visible
06 Dec 8.2 00:23:38 10° SSW 00:26:56 37° W 00:30:12 10° NNW visible
06 Dec 9.9 11:45:28 10° ENE 11:46:30 11° E 11:47:31 10° ESE visible
06 Dec 6.3 13:16:44 10° N 13:20:05 59° WNW 13:23:24 10° SSW visible
07 Dec 6.9 12:48:10 10° NNE 12:51:32 60° E 12:54:52 10° S visible
07 Dec 8.3 14:22:49 10° NW 14:24:17 12° WNW 14:25:45 10° W visible
08 Dec 9.7 01:01:07 10° SW 01:03:14 15° W 01:05:21 10° NW visible
08 Dec 8.5 12:19:55 10° NE 12:22:52 27° E 12:25:48 10° SSE visible
08 Dec 7.5 13:53:14 10° NNW 13:55:59 23° WNW 13:58:43 10° WSW visible
09 Dec 8.7 00:31:22 10° SSW 00:34:29 30° W 00:37:35 10° NNW visible
09 Dec 9.6 11:52:20 10° ENE 11:54:05 13° E 11:55:49 10° ESE visible
09 Dec 6.6 13:24:16 10° N 13:27:33 47° WNW 13:30:49 10° SSW visible
10 Dec 7.4 12:55:36 10° NNE 13:00:14 37° S 13:02:23 10° S visible
10 Dec 8.5 14:30:59 10° NW 14:34:22 - W 14:31:25 10° NW visible
11 Dec 9.8 01:09:12 10° WSW 01:10:47 13° W 01:12:20 10° WNW visible
11 Dec 8.7 12:27:13 10° NNE 12:32:03 20° SSE 12:33:26 10° SSE visible
11 Dec 8.3 14:00:50 10° NNW 14:06:10 - WSW 14:01:53 15° NNW visible
